Gauley Below the Meadow [ USA-WVR ]

Edit Gauge

Current Conditions

Reading of "n/a" = frozen gauge or gauge error.
Reading Trend Type Updated
2644 cfs 25 cfs/hr Flow 02h03m

Station Description

AW Gauge ID: 43451
Source: virtual
Station: 6192
Enabled yes
Description:Summersville Gauley + the Meadow.
Calculation:$flow=$gauge[8515]->getValue(GMETRIC_FLOW,120*60)+$gauge[51285]->getValue(GMETRIC_FLOW,60*120);
Data is courtesy of AW's Stream Team program. This data is calculated based on other gauges and information provided by the Stream Team. This data, and any river data, should be used with caution.

Information

Flow

Gauge History

Times listed in GMT 24h, ET and PT hours provided for convenience Graphs in GMT. Readings of "n/a" constitute a frozen gauge or gauge error.
Reading Updated (GMT) Eastern Pacific Comment
2644.22 03/27/2015 08:12:48 Mar 27 04:12 am Mar 27 1:12 am
2618.92 03/27/2015 07:13:04 Mar 27 03:13 am Mar 27 12:13 am
2586.92 03/27/2015 06:11:12 Mar 27 02:11 am Mar 26 11:11 pm
2562.52 03/27/2015 05:11:28 Mar 27 01:11 am Mar 26 10:11 pm
2567.34 03/27/2015 04:11:44 Mar 27 12:11 am Mar 26 9:11 pm
2569.22 03/27/2015 03:12:00 Mar 26 11:12 pm Mar 26 8:12 pm
2558.22 03/27/2015 02:12:16 Mar 26 10:12 pm Mar 26 7:12 pm
2450.18 03/27/2015 01:12:32 Mar 26 09:12 pm Mar 26 6:12 pm
2450.18 03/26/2015 23:13:04 Mar 26 07:13 pm Mar 26 4:13 pm
2442.47 03/26/2015 22:11:12 Mar 26 06:11 pm Mar 26 3:11 pm
2451.09 03/26/2015 21:11:28 Mar 26 05:11 pm Mar 26 2:11 pm
2146.43 03/26/2015 20:11:44 Mar 26 04:11 pm Mar 26 1:11 pm
2158.14 03/26/2015 19:12:00 Mar 26 03:12 pm Mar 26 12:12 pm
2059.28 03/26/2015 18:12:16 Mar 26 02:12 pm Mar 26 11:12 am
2063.28 03/26/2015 17:12:32 Mar 26 01:12 pm Mar 26 10:12 am
2067.28 03/26/2015 16:12:48 Mar 26 12:12 pm Mar 26 9:12 am
2074.78 03/26/2015 15:13:04 Mar 26 11:13 am Mar 26 8:13 am
2075.28 03/26/2015 14:11:12 Mar 26 10:11 am Mar 26 7:11 am
2071.80 03/26/2015 13:11:28 Mar 26 09:11 am Mar 26 6:11 am
2087.28 03/26/2015 12:11:44 Mar 26 08:11 am Mar 26 5:11 am
2113.83 03/26/2015 11:12:00 Mar 26 07:12 am Mar 26 4:12 am
2408.81 03/26/2015 10:12:16 Mar 26 06:12 am Mar 26 3:12 am
2404.64 03/26/2015 09:12:32 Mar 26 05:12 am Mar 26 2:12 am
2419.81 03/26/2015 08:12:48 Mar 26 04:12 am Mar 26 1:12 am
2444.42 03/26/2015 07:13:04 Mar 26 03:13 am Mar 26 12:13 am
2539.52 03/26/2015 06:11:12 Mar 26 02:11 am Mar 25 11:11 pm
2542.52 03/26/2015 05:11:28 Mar 26 01:11 am Mar 25 10:11 pm
2558.52 03/26/2015 04:11:44 Mar 26 12:11 am Mar 25 9:11 pm
2562.52 03/26/2015 01:12:32 Mar 25 09:12 pm Mar 25 6:12 pm
2562.14 03/26/2015 00:12:48 Mar 25 08:12 pm Mar 25 5:12 pm
2562.14 03/25/2015 23:13:04 Mar 25 07:13 pm Mar 25 4:13 pm
2495.42 03/25/2015 22:11:12 Mar 25 06:11 pm Mar 25 3:11 pm
2494.20 03/25/2015 21:11:28 Mar 25 05:11 pm Mar 25 2:11 pm
2518.91 03/25/2015 20:11:44 Mar 25 04:11 pm Mar 25 1:11 pm
2469.49 03/25/2015 19:12:00 Mar 25 03:12 pm Mar 25 12:12 pm
2493.81 03/25/2015 18:12:16 Mar 25 02:12 pm Mar 25 11:12 am
2502.81 03/25/2015 17:12:32 Mar 25 01:12 pm Mar 25 10:12 am
2581.09 03/25/2015 16:12:48 Mar 25 12:12 pm Mar 25 9:12 am
2572.77 03/25/2015 15:13:04 Mar 25 11:13 am Mar 25 8:13 am
2593.09 03/25/2015 14:11:12 Mar 25 10:11 am Mar 25 7:11 am
2601.09 03/25/2015 13:11:28 Mar 25 09:11 am Mar 25 6:11 am
2600.77 03/25/2015 12:11:44 Mar 25 08:11 am Mar 25 5:11 am
2609.77 03/25/2015 11:12:00 Mar 25 07:12 am Mar 25 4:12 am
2621.77 03/25/2015 10:12:16 Mar 25 06:12 am Mar 25 3:12 am
2630.09 03/25/2015 09:12:32 Mar 25 05:12 am Mar 25 2:12 am
2651.42 03/25/2015 08:12:48 Mar 25 04:12 am Mar 25 1:12 am
2634.77 03/25/2015 07:13:04 Mar 25 03:13 am Mar 25 12:13 am
2641.77 03/25/2015 06:11:12 Mar 25 02:11 am Mar 24 11:11 pm
2658.09 03/25/2015 05:11:28 Mar 25 01:11 am Mar 24 10:11 pm
2660.09 03/25/2015 04:11:44 Mar 25 12:11 am Mar 24 9:11 pm
2684.77 03/25/2015 03:12:00 Mar 24 11:12 pm Mar 24 8:12 pm
3122.41 03/25/2015 02:12:16 Mar 24 10:12 pm Mar 24 7:12 pm
3131.41 03/25/2015 01:12:32 Mar 24 09:12 pm Mar 24 6:12 pm
3136.41 03/25/2015 00:12:48 Mar 24 08:12 pm Mar 24 5:12 pm
3118.19 03/24/2015 23:13:04 Mar 24 07:13 pm Mar 24 4:13 pm
3163.55 03/24/2015 22:11:12 Mar 24 06:11 pm Mar 24 3:11 pm
3155.29 03/24/2015 21:11:28 Mar 24 05:11 pm Mar 24 2:11 pm
3164.29 03/24/2015 20:11:44 Mar 24 04:11 pm Mar 24 1:11 pm
3174.29 03/24/2015 19:12:00 Mar 24 03:12 pm Mar 24 12:12 pm
3183.29 03/24/2015 18:12:16 Mar 24 02:12 pm Mar 24 11:12 am
3202.41 03/24/2015 17:12:32 Mar 24 01:12 pm Mar 24 10:12 am
3220.55 03/24/2015 16:12:48 Mar 24 12:12 pm Mar 24 9:12 am
3211.41 03/24/2015 15:13:04 Mar 24 11:13 am Mar 24 8:13 am
3226.41 03/24/2015 14:11:12 Mar 24 10:11 am Mar 24 7:11 am
3259.70 03/24/2015 13:11:28 Mar 24 09:11 am Mar 24 6:11 am
3259.55 03/24/2015 12:11:44 Mar 24 08:11 am Mar 24 5:11 am
3264.55 03/24/2015 11:12:00 Mar 24 07:12 am Mar 24 4:12 am
3269.55 03/24/2015 10:12:16 Mar 24 06:12 am Mar 24 3:12 am
3293.70 03/24/2015 09:12:32 Mar 24 05:12 am Mar 24 2:12 am
3323.04 03/24/2015 08:12:48 Mar 24 04:12 am Mar 24 1:12 am
3295.55 03/24/2015 07:13:04 Mar 24 03:13 am Mar 24 12:13 am
3305.55 03/24/2015 06:11:12 Mar 24 02:11 am Mar 23 11:11 pm
3329.70 03/24/2015 05:11:28 Mar 24 01:11 am Mar 23 10:11 pm
3330.55 03/24/2015 04:11:44 Mar 24 12:11 am Mar 23 9:11 pm
3350.70 03/24/2015 03:12:00 Mar 23 11:12 pm Mar 23 8:12 pm
3350.70 03/24/2015 01:12:32 Mar 23 09:12 pm Mar 23 6:12 pm
3376.70 03/24/2015 00:12:48 Mar 23 08:12 pm Mar 23 5:12 pm
3367.55 03/23/2015 23:13:04 Mar 23 07:13 pm Mar 23 4:13 pm
3386.70 03/23/2015 22:11:12 Mar 23 06:11 pm Mar 23 3:11 pm
3378.41 03/23/2015 21:11:28 Mar 23 05:11 pm Mar 23 2:11 pm
3461.92 03/23/2015 20:11:44 Mar 23 04:11 pm Mar 23 1:11 pm
3462.68 03/23/2015 19:12:00 Mar 23 03:12 pm Mar 23 12:12 pm
3481.92 03/23/2015 18:12:16 Mar 23 02:12 pm Mar 23 11:12 am
3491.17 03/23/2015 17:12:32 Mar 23 01:12 pm Mar 23 10:12 am
3501.17 03/23/2015 16:12:48 Mar 23 12:12 pm Mar 23 9:12 am
3510.44 03/23/2015 15:13:04 Mar 23 11:13 am Mar 23 8:13 am
3521.17 03/23/2015 14:11:12 Mar 23 10:11 am Mar 23 7:11 am
3511.92 03/23/2015 13:11:28 Mar 23 09:11 am Mar 23 6:11 am
3549.73 03/23/2015 12:11:44 Mar 23 08:11 am Mar 23 5:11 am
4002.95 03/23/2015 11:12:00 Mar 23 07:12 am Mar 23 4:12 am
3983.03 03/23/2015 10:12:16 Mar 23 06:12 am Mar 23 3:12 am
4012.95 03/23/2015 09:12:32 Mar 23 05:12 am Mar 23 2:12 am
4022.95 03/23/2015 08:12:48 Mar 23 04:12 am Mar 23 1:12 am
4012.98 03/23/2015 07:13:04 Mar 23 03:13 am Mar 23 12:13 am
4052.92 03/23/2015 06:11:12 Mar 23 02:11 am Mar 22 11:11 pm
4052.95 03/23/2015 05:11:28 Mar 23 01:11 am Mar 22 10:11 pm
4042.98 03/23/2015 04:11:44 Mar 23 12:11 am Mar 22 9:11 pm
4123.05 03/23/2015 03:12:00 Mar 22 11:12 pm Mar 22 8:12 pm
4143.12 03/23/2015 02:12:16 Mar 22 10:12 pm Mar 22 7:12 pm
4053.03 03/23/2015 00:12:48 Mar 22 08:12 pm Mar 22 5:12 pm
4063.03 03/22/2015 23:13:04 Mar 22 07:13 pm Mar 22 4:13 pm
4082.98 03/22/2015 22:11:12 Mar 22 06:11 pm Mar 22 3:11 pm
4112.93 03/22/2015 21:11:28 Mar 22 05:11 pm Mar 22 2:11 pm
4112.93 03/22/2015 20:11:44 Mar 22 04:11 pm Mar 22 1:11 pm
4093.03 03/22/2015 19:12:00 Mar 22 03:12 pm Mar 22 12:12 pm
4093.10 03/22/2015 18:12:16 Mar 22 02:12 pm Mar 22 11:12 am
4132.95 03/22/2015 17:12:32 Mar 22 01:12 pm Mar 22 10:12 am
4103.10 03/22/2015 16:12:48 Mar 22 12:12 pm Mar 22 9:12 am
4122.98 03/22/2015 15:13:04 Mar 22 11:13 am Mar 22 8:13 am
4142.95 03/22/2015 14:11:12 Mar 22 10:11 am Mar 22 7:11 am
4253.41 03/22/2015 13:11:28 Mar 22 09:11 am Mar 22 6:11 am
4334.82 03/22/2015 12:11:44 Mar 22 08:11 am Mar 22 5:11 am
4520.90 03/22/2015 11:12:00 Mar 22 07:12 am Mar 22 4:12 am
4520.90 03/22/2015 10:12:16 Mar 22 06:12 am Mar 22 3:12 am
4562.94 03/22/2015 09:12:32 Mar 22 05:12 am Mar 22 2:12 am
4572.94 03/22/2015 08:12:48 Mar 22 04:12 am Mar 22 1:12 am
4541.39 03/22/2015 07:13:04 Mar 22 03:13 am Mar 22 12:13 am
4561.89 03/22/2015 06:11:12 Mar 22 02:11 am Mar 21 11:11 pm
4561.89 03/22/2015 05:11:28 Mar 22 01:11 am Mar 21 10:11 pm
4571.89 03/22/2015 04:11:44 Mar 22 12:11 am Mar 21 9:11 pm
4561.39 03/22/2015 03:12:00 Mar 21 11:12 pm Mar 21 8:12 pm
4529.97 03/22/2015 01:12:32 Mar 21 09:12 pm Mar 21 6:12 pm
4677.71 03/22/2015 00:12:48 Mar 21 08:12 pm Mar 21 5:12 pm
4677.71 03/21/2015 23:13:04 Mar 21 07:13 pm Mar 21 4:13 pm
4719.74 03/21/2015 22:11:12 Mar 21 06:11 pm Mar 21 3:11 pm
4783.42 03/21/2015 21:11:28 Mar 21 05:11 pm Mar 21 2:11 pm
4740.45 03/21/2015 20:11:44 Mar 21 04:11 pm Mar 21 1:11 pm
4729.74 03/21/2015 19:12:00 Mar 21 03:12 pm Mar 21 12:12 pm
4708.38 03/21/2015 18:12:16 Mar 21 02:12 pm Mar 21 11:12 am
4709.05 03/21/2015 17:12:32 Mar 21 01:12 pm Mar 21 10:12 am
4946.62 03/21/2015 16:12:48 Mar 21 12:12 pm Mar 21 9:12 am
4957.61 03/21/2015 15:13:04 Mar 21 11:13 am Mar 21 8:13 am
4958.63 03/21/2015 14:11:12 Mar 21 10:11 am Mar 21 7:11 am
4947.61 03/21/2015 13:11:28 Mar 21 09:11 am Mar 21 6:11 am
4925.64 03/21/2015 12:11:44 Mar 21 08:11 am Mar 21 5:11 am
4937.61 03/21/2015 11:12:00 Mar 21 07:12 am Mar 21 4:12 am
4937.61 03/21/2015 10:12:16 Mar 21 06:12 am Mar 21 3:12 am
4927.61 03/21/2015 09:12:32 Mar 21 05:12 am Mar 21 2:12 am
4894.67 03/21/2015 08:12:48 Mar 21 04:12 am Mar 21 1:12 am
4572.41 03/21/2015 07:13:04 Mar 21 03:13 am Mar 21 12:13 am
4365.32 03/21/2015 06:11:12 Mar 21 02:11 am Mar 20 11:11 pm
4365.87 03/21/2015 05:11:28 Mar 21 01:11 am Mar 20 10:11 pm
4345.59 03/21/2015 04:11:44 Mar 21 12:11 am Mar 20 9:11 pm
4335.87 03/21/2015 03:12:00 Mar 20 11:12 pm Mar 20 8:12 pm
4752.78 03/21/2015 02:12:16 Mar 20 10:12 pm Mar 20 7:12 pm
4722.78 03/21/2015 00:12:48 Mar 20 08:12 pm Mar 20 5:12 pm
4722.78 03/20/2015 23:13:04 Mar 20 07:13 pm Mar 20 4:13 pm
4694.67 03/20/2015 22:11:12 Mar 20 06:11 pm Mar 20 3:11 pm
4653.71 03/20/2015 21:11:28 Mar 20 05:11 pm Mar 20 2:11 pm
4634.67 03/20/2015 20:11:44 Mar 20 04:11 pm Mar 20 1:11 pm
4603.67 03/20/2015 19:12:00 Mar 20 03:12 pm Mar 20 12:12 pm
4632.65 03/20/2015 18:12:16 Mar 20 02:12 pm Mar 20 11:12 am
4619.75 03/20/2015 17:12:32 Mar 20 01:12 pm Mar 20 10:12 am
4581.65 03/20/2015 16:12:48 Mar 20 12:12 pm Mar 20 9:12 am
4559.61 03/20/2015 15:13:04 Mar 20 11:13 am Mar 20 8:13 am
4536.63 03/20/2015 14:11:12 Mar 20 10:11 am Mar 20 7:11 am
4532.65 03/20/2015 13:11:28 Mar 20 09:11 am Mar 20 6:11 am
5076.01 03/20/2015 12:11:44 Mar 20 08:11 am Mar 20 5:11 am
5107.36 03/20/2015 11:12:00 Mar 20 07:12 am Mar 20 4:12 am
5062.01 03/20/2015 10:12:16 Mar 20 06:12 am Mar 20 3:12 am
5064.78 03/20/2015 09:12:32 Mar 20 05:12 am Mar 20 2:12 am
5041.26 03/20/2015 08:12:48 Mar 20 04:12 am Mar 20 1:12 am
5053.01 03/20/2015 07:13:04 Mar 20 03:13 am Mar 20 12:13 am
5021.79 03/20/2015 06:11:12 Mar 20 02:11 am Mar 19 11:11 pm
5033.52 03/20/2015 05:11:28 Mar 20 01:11 am Mar 19 10:11 pm
5050.26 03/20/2015 04:11:44 Mar 20 12:11 am Mar 19 9:11 pm
5067.01 03/20/2015 03:12:00 Mar 19 11:12 pm Mar 19 8:12 pm
5086.01 03/20/2015 02:12:16 Mar 19 10:12 pm Mar 19 7:12 pm
5097.78 03/20/2015 00:12:48 Mar 19 08:12 pm Mar 19 5:12 pm
5112.78 03/19/2015 23:13:04 Mar 19 07:13 pm Mar 19 4:13 pm
5139.56 03/19/2015 22:11:12 Mar 19 06:11 pm Mar 19 3:11 pm
5160.36 03/19/2015 21:11:28 Mar 19 05:11 pm Mar 19 2:11 pm
5194.00 03/19/2015 20:11:44 Mar 19 04:11 pm Mar 19 1:11 pm
5168.56 03/19/2015 19:12:00 Mar 19 03:12 pm Mar 19 12:12 pm
5983.75 03/19/2015 18:12:16 Mar 19 02:12 pm Mar 19 11:12 am
5904.46 03/19/2015 17:12:32 Mar 19 01:12 pm Mar 19 10:12 am
5927.17 03/19/2015 16:12:48 Mar 19 12:12 pm Mar 19 9:12 am
5965.39 03/19/2015 15:13:04 Mar 19 11:13 am Mar 19 8:13 am
5996.39 03/19/2015 14:11:12 Mar 19 10:11 am Mar 19 7:11 am
6775.73 03/19/2015 13:11:28 Mar 19 09:11 am Mar 19 6:11 am
6725.89 03/19/2015 12:11:44 Mar 19 08:11 am Mar 19 5:11 am
7959.27 03/19/2015 11:12:00 Mar 19 07:12 am Mar 19 4:12 am
8030.43 03/19/2015 10:12:16 Mar 19 06:12 am Mar 19 3:12 am
8096.51 03/19/2015 09:12:32 Mar 19 05:12 am Mar 19 2:12 am
8168.24 03/19/2015 08:12:48 Mar 19 04:12 am Mar 19 1:12 am
8106.51 03/19/2015 07:13:04 Mar 19 03:13 am Mar 19 12:13 am
8090.43 03/19/2015 06:11:12 Mar 19 02:11 am Mar 18 11:11 pm
8115.77 03/19/2015 05:11:28 Mar 19 01:11 am Mar 18 10:11 pm
8089.81 03/19/2015 04:11:44 Mar 19 12:11 am Mar 18 9:11 pm
8207.33 03/19/2015 03:12:00 Mar 18 11:12 pm Mar 18 8:12 pm
8227.33 03/19/2015 02:12:16 Mar 18 10:12 pm Mar 18 7:12 pm
8247.33 03/19/2015 01:12:32 Mar 18 09:12 pm Mar 18 6:12 pm
8155.11 03/19/2015 00:12:48 Mar 18 08:12 pm Mar 18 5:12 pm
8165.11 03/18/2015 23:13:04 Mar 18 07:13 pm Mar 18 4:13 pm
8205.11 03/18/2015 22:11:12 Mar 18 06:11 pm Mar 18 3:11 pm
8230.43 03/18/2015 21:11:28 Mar 18 05:11 pm Mar 18 2:11 pm
8189.27 03/18/2015 20:11:44 Mar 18 04:11 pm Mar 18 1:11 pm
8291.13 03/18/2015 19:12:00 Mar 18 03:12 pm Mar 18 12:12 pm
8264.53 03/18/2015 18:12:16 Mar 18 02:12 pm Mar 18 11:12 am
8249.27 03/18/2015 15:13:04 Mar 18 11:13 am Mar 18 8:13 am
9661.25 03/18/2015 14:11:12 Mar 18 10:11 am Mar 18 7:11 am
9784.09 03/18/2015 13:11:28 Mar 18 09:11 am Mar 18 6:11 am
10731.10 03/18/2015 12:11:44 Mar 18 08:11 am Mar 18 5:11 am
10714.20 03/18/2015 11:12:00 Mar 18 07:12 am Mar 18 4:12 am
10724.20 03/18/2015 10:12:16 Mar 18 06:12 am Mar 18 3:12 am
10828.00 03/18/2015 09:12:32 Mar 18 05:12 am Mar 18 2:12 am
10682.50 03/18/2015 08:12:48 Mar 18 04:12 am Mar 18 1:12 am
10719.10 03/18/2015 07:13:04 Mar 18 03:13 am Mar 18 12:13 am
10694.20 03/18/2015 06:11:12 Mar 18 02:11 am Mar 17 11:11 pm
10732.50 03/18/2015 05:11:28 Mar 18 01:11 am Mar 17 10:11 pm
10734.20 03/18/2015 04:11:44 Mar 18 12:11 am Mar 17 9:11 pm
10929.50 03/18/2015 03:12:00 Mar 17 11:12 pm Mar 17 8:12 pm
10978.00 03/18/2015 02:12:16 Mar 17 10:12 pm Mar 17 7:12 pm
10998.00 03/18/2015 01:12:32 Mar 17 09:12 pm Mar 17 6:12 pm
11018.00 03/18/2015 00:12:48 Mar 17 08:12 pm Mar 17 5:12 pm
10852.50 03/17/2015 23:13:04 Mar 17 07:13 pm Mar 17 4:13 pm
10909.10 03/17/2015 22:11:12 Mar 17 06:11 pm Mar 17 3:11 pm
11014.20 03/17/2015 21:11:28 Mar 17 05:11 pm Mar 17 2:11 pm
10960.80 03/17/2015 20:11:44 Mar 17 04:11 pm Mar 17 1:11 pm
11081.10 03/17/2015 19:12:00 Mar 17 03:12 pm Mar 17 12:12 pm
11129.50 03/17/2015 18:12:16 Mar 17 02:12 pm Mar 17 11:12 am
11215.10 03/17/2015 17:12:32 Mar 17 01:12 pm Mar 17 10:12 am
11151.10 03/17/2015 16:12:48 Mar 17 12:12 pm Mar 17 9:12 am
11206.60 03/17/2015 15:13:04 Mar 17 11:13 am Mar 17 8:13 am
12027.80 03/17/2015 14:11:12 Mar 17 10:11 am Mar 17 7:11 am
11902.00 03/17/2015 13:11:28 Mar 17 09:11 am Mar 17 6:11 am
11931.40 03/17/2015 12:11:44 Mar 17 08:11 am Mar 17 5:11 am
11980.80 03/17/2015 11:12:00 Mar 17 07:12 am Mar 17 4:12 am
12107.80 03/17/2015 10:12:16 Mar 17 06:12 am Mar 17 3:12 am
12098.70 03/17/2015 09:12:32 Mar 17 05:12 am Mar 17 2:12 am
12012.00 03/17/2015 08:12:48 Mar 17 04:12 am Mar 17 1:12 am
11992.60 03/17/2015 07:13:04 Mar 17 03:13 am Mar 17 12:13 am
12237.40 03/17/2015 06:11:12 Mar 17 02:11 am Mar 16 11:11 pm
12277.10 03/17/2015 05:11:28 Mar 17 01:11 am Mar 16 10:11 pm
12189.70 03/17/2015 04:11:44 Mar 17 12:11 am Mar 16 9:11 pm
12298.30 03/17/2015 03:12:00 Mar 16 11:12 pm Mar 16 8:12 pm
12220.80 03/17/2015 01:12:32 Mar 16 09:12 pm Mar 16 6:12 pm
12298.70 03/17/2015 00:12:48 Mar 16 08:12 pm Mar 16 5:12 pm
12338.70 03/16/2015 23:13:04 Mar 16 07:13 pm Mar 16 4:13 pm
12477.40 03/16/2015 22:11:12 Mar 16 06:11 pm Mar 16 3:11 pm
12576.10 03/16/2015 21:11:28 Mar 16 05:11 pm Mar 16 2:11 pm
12459.20 03/16/2015 20:11:44 Mar 16 04:11 pm Mar 16 1:11 pm
12499.20 03/16/2015 19:12:00 Mar 16 03:12 pm Mar 16 12:12 pm
12568.70 03/16/2015 18:12:16 Mar 16 02:12 pm Mar 16 11:12 am
12510.20 03/16/2015 17:12:32 Mar 16 01:12 pm Mar 16 10:12 am
12677.40 03/16/2015 16:12:48 Mar 16 12:12 pm Mar 16 9:12 am
12657.80 03/16/2015 15:13:04 Mar 16 11:13 am Mar 16 8:13 am
12630.80 03/16/2015 14:11:12 Mar 16 10:11 am Mar 16 7:11 am
12807.40 03/16/2015 13:11:28 Mar 16 09:11 am Mar 16 6:11 am
12798.70 03/16/2015 12:11:44 Mar 16 08:11 am Mar 16 5:11 am
15031.50 03/16/2015 11:12:00 Mar 16 07:12 am Mar 16 4:12 am
15059.10 03/16/2015 10:12:16 Mar 16 06:12 am Mar 16 3:12 am
15244.30 03/16/2015 09:12:32 Mar 16 05:12 am Mar 16 2:12 am
15430.60 03/16/2015 08:12:48 Mar 16 04:12 am Mar 16 1:12 am
15294.30 03/16/2015 07:13:04 Mar 16 03:13 am Mar 16 12:13 am
15452.30 03/16/2015 06:11:12 Mar 16 02:11 am Mar 15 11:11 pm
15509.60 03/16/2015 05:11:28 Mar 16 01:11 am Mar 15 10:11 pm
15351.50 03/16/2015 03:12:00 Mar 15 11:12 pm Mar 15 8:12 pm
15471.50 03/16/2015 02:12:16 Mar 15 10:12 pm Mar 15 7:12 pm
15812.10 03/16/2015 00:12:48 Mar 15 08:12 pm Mar 15 5:12 pm
15872.10 03/15/2015 23:13:04 Mar 15 07:13 pm Mar 15 4:13 pm
15875.10 03/15/2015 22:11:12 Mar 15 06:11 pm Mar 15 3:11 pm
15844.30 03/15/2015 21:11:28 Mar 15 05:11 pm Mar 15 2:11 pm
15861.70 03/15/2015 20:11:44 Mar 15 04:11 pm Mar 15 1:11 pm
15967.00 03/15/2015 19:12:00 Mar 15 03:12 pm Mar 15 12:12 pm
16062.30 03/15/2015 18:12:16 Mar 15 02:12 pm Mar 15 11:12 am
16125.10 03/15/2015 17:12:32 Mar 15 01:12 pm Mar 15 10:12 am
16391.00 03/15/2015 16:12:48 Mar 15 12:12 pm Mar 15 9:12 am
15914.20 03/15/2015 15:13:04 Mar 15 11:13 am Mar 15 8:13 am
16174.30 03/15/2015 14:11:12 Mar 15 10:11 am Mar 15 7:11 am
16084.00 03/15/2015 13:11:28 Mar 15 09:11 am Mar 15 6:11 am
16340.60 03/15/2015 12:11:44 Mar 15 08:11 am Mar 15 5:11 am
16131.50 03/15/2015 11:12:00 Mar 15 07:12 am Mar 15 4:12 am
16146.50 03/15/2015 10:12:16 Mar 15 06:12 am Mar 15 3:12 am
16109.10 03/15/2015 09:12:32 Mar 15 05:12 am Mar 15 2:12 am
16254.30 03/15/2015 08:12:48 Mar 15 04:12 am Mar 15 1:12 am
16209.10 03/15/2015 07:13:04 Mar 15 03:13 am Mar 15 12:13 am
16161.50 03/15/2015 06:11:12 Mar 15 02:11 am Mar 14 11:11 pm
16237.00 03/15/2015 05:11:28 Mar 15 01:11 am Mar 14 10:11 pm
16086.50 03/15/2015 04:11:44 Mar 15 12:11 am Mar 14 9:11 pm
16109.60 03/15/2015 02:12:16 Mar 14 10:12 pm Mar 14 7:12 pm
15866.60 03/15/2015 00:12:48 Mar 14 08:12 pm Mar 14 5:12 pm
15866.60 03/14/2015 23:13:04 Mar 14 07:13 pm Mar 14 4:13 pm
15846.50 03/14/2015 22:11:12 Mar 14 06:11 pm Mar 14 3:11 pm
15664.20 03/14/2015 21:11:28 Mar 14 05:11 pm Mar 14 2:11 pm
15634.20 03/14/2015 20:11:44 Mar 14 04:11 pm Mar 14 1:11 pm
15787.00 03/14/2015 19:12:00 Mar 14 03:12 pm Mar 14 12:12 pm
14077.50 03/14/2015 18:12:16 Mar 14 02:12 pm Mar 14 11:12 am
14036.80 03/14/2015 17:12:32 Mar 14 01:12 pm Mar 14 10:12 am
14037.10 03/14/2015 16:12:48 Mar 14 12:12 pm Mar 14 9:12 am
14118.80 03/14/2015 15:13:04 Mar 14 11:13 am Mar 14 8:13 am
14241.50 03/14/2015 14:11:12 Mar 14 10:11 am Mar 14 7:11 am
14006.80 03/14/2015 13:11:28 Mar 14 09:11 am Mar 14 6:11 am
14139.30 03/14/2015 12:11:44 Mar 14 08:11 am Mar 14 5:11 am
14159.30 03/14/2015 11:12:00 Mar 14 07:12 am Mar 14 4:12 am
14139.80 03/14/2015 10:12:16 Mar 14 06:12 am Mar 14 3:12 am
14170.90 03/14/2015 09:12:32 Mar 14 05:12 am Mar 14 2:12 am
14090.40 03/14/2015 08:12:48 Mar 14 04:12 am Mar 14 1:12 am
13926.80 03/14/2015 07:13:04 Mar 14 03:13 am Mar 14 12:13 am
13927.50 03/14/2015 06:11:12 Mar 14 02:11 am Mar 13 11:11 pm

Report - Reports of Related Gauges

Reports give the public a chance to report on river conditions throughout the country as well as log the history of a river.

Reports

When River/Gauge Subject Level Reporter
5y305d22h12m Gauley Below the Meadow [WV] Account of 05/26/09 600 cfs Ryan Groth

Linked Reaches

Click a heading to sort. Hover over a heading for help.
River Name/Section Class Level running? Updated
Gauley [WV] 8 (Middle). Mason Branch to Bucklick Branch III+(IV) 2644 cfs
+ 25 cfs/hr
R4-
Runnable
02h03m
Gauley [WV] 9 (Lower). Bucklick Branch to Swiss III-IV(V) 2960 cfs
+ 60 cfs/hr
R0-
Lower Runnable
01h16m

Associated Gauges

Disclaimer Data Sources

Gauley at Summersville (cfs) (AW#8515)

2469 cfs 00h48m

MEADOW RIVER AT NALLEN, WV (AW#51285)

672 cfs 01h01m

MEADOW RIVER AT NALLEN, WV (AW#51285)

5.86 ft 01h01m